P/2019 Y2 ( Fuls )

Japanese version
Home page
Updated on January 20, 2020

---------------------------------------------------------------------

* Profile

Discovery Date December 21, 2019
Magnitude 18.8 mag
Discoverer D. Carson Fuls (Mount Lemmon Survey)

* Orbital Elements

Epoch 2020 Feb. 1.0 TT = JDT 2458880.5
T 2020 Jan. 30.61644 TT                                 Williams
q   2.1307581            (2000.0)            P               Q
n   0.14867880     Peri.   91.71901     -0.98850219     -0.12544735
a   3.5288783      Node    81.08066     +0.08050094     -0.90921153
e   0.3961939      Incl.    4.90197     +0.12799616     -0.39698534
P   6.63
From 140 observations 2019 Dec. 21-2020 Jan. 7, mean residual 0".6.

* Finding Charts

* Magnitudes Graph

        m1 = 13.0 + 5 log d + 10.0 log r

---------------------------------------------------------------------

The orbital elements are published on M.P.E.C. 2020-A105.
The charts are made with StellaNavigator Ver.10 (AstroArts).
The magnitudes graphs are made with Comet for Windows.

---------------------------------------------------------------------

Copyright(C) Seiichi Yoshida (comet@aerith.net). All rights reserved.